Temp
63 64 64 65 64 64 65 65 65 64 64 64 65 64 64 64 64 75 70 71 71 70 68 75 78 78 76 71 71 68 56 56 58 59 60 66 64 68 69 65 65 66 60 61 64
63 63 64 64 64 64 64 64 64 64 64 64 64 64 64 64 78 72 72 71 70 70 76 75 74 75 70 69 67 61 55 59 65 64 61 65 63 61 62 60 59 61 62 63 62
62 62 63 63 63 64 64 64 63 63 64 63 63 64 64 67 74 72 70 71 70 70 77 76 76 73 67 67 64 62 57 63 66 65 65 62 62 62 58 55 55 54 55 58 58
61 61 61 62 62 63 63 63 63 63 63 63 63 64 63 75 63 73 70 71 71 73 77 76 74 67 63 61 66 57 65 65 64 64 62 59 62 59 59 56 59 57 58 57 55
60 60 60 61 61 62 63 63 63 63 63 63 63 64 71 73 69 78 71 73 78 77 73 70 69 65 62 62 63 59 61 64 64 61 60 63 58 58 56 58 59 59 58 55 54
60 59 59 60 61 62 62 63 63 63 63 63 64 62 73 68 74 78 74 73 73 73 71 70 66 65 62 62 57 60 61 62 61 62 61 58 56 58 57 58 56 57 54 54 53
60 59 59 59 60 61 61 62 63 63 63 64 64 72 75 67 76 75 75 69 69 70 68 67 67 63 62 61 61 60 54 58 59 60 58 56 53 54 57 57 55 54 52 54 54
59 59 58 59 60 60 61 62 63 63 63 64 64 74 67 73 74 75 76 73 73 71 68 66 66 64 61 62 59 54 53 49 58 60 57 53 46 55 59 55 50 50 48 51 53
59 58 58 59 59 59 60 62 62 64 65 65 70 71 66 71 71 73 72 69 70 70 68 71 64 60 58 53 51 53 46 50 53 60 57 53 46 54 56 52 49 47 48 49 50
58 58 58 58 59 59 60 63 66 65 69 76 77 67 69 67 69 69 72 69 66 67 65 61 60 55 55 52 43 43 45 49 47 54 54 50 50 51 51 50 46 45 46 46 48
58 58 58 58 59 60 63 76 72 70 69 65 63 64 66 70 68 69 69 67 68 64 58 60 52 50 52 52 51 50 48 46 53 54 47 48 49 53 49 48 44 43 44 44 46
58 58 58 58 59 60 64 64 56 57 53 62 62 61 66 65 63 67 71 63 61 55 60 56 50 54 55 54 51 49 47 46 51 53 49 47 48 46 47 47 45 44 43 44 45
58 57 57 58 58 63 63 57 62 62 54 60 63 64 63 63 62 62 65 60 57 54 55 49 55 57 54 51 50 49 46 44 42 48 50 47 43 39 45 46 46 47 46 46 44
58 57 57 57 61 65 60 60 61 61 51 57 58 61 63 63 58 63 63 58 57 53 52 51 54 51 49 49 50 42 46 46 44 39 33 45 31 38 41 41 44 44 41 41 41
57 57 57 57 60 65 57 60 60 56 38 59 58 66 63 59 57 57 60 57 52 54 50 50 48 47 46 48 48 45 45 44 42 39 37 39 33 38 41 38 40 41 42 40 40
57 56 55 62 62 55 56 59 56 51 38 54 59 57 57 57 58 59 58 58 55 50 52 51 51 47 47 49 47 48 44 44 44 40 26 37 35 35 36 41 39 41 40 41 40
56 56 56 60 59 55 57 56 49 42 57 53 53 56 54 54 56 54 52 49 47 42 43 48 48 46 47 43 45 43 39 27 25 24 24 37 30 36 38 40 40 40 38 38 38
56 55 56 61 59 55 56 54 39 52 54 54 54 52 51 53 52 50 46 44 51 47 41 38 36 44 47 42 38 40 38 25 17 19 23 33 25 34 42 42 43 42 40 40 39
55 58 58 60 59 56 53 43 47 53 56 53 51 48 49 49 47 46 45 46 47 49 40 41 40 43 43 44 42 38 31 37 26 15 14 25 35 38 40 40 40 39 39 36 38
56 57 59 60 58 55 48 46 52 58 55 53 47 53 46 48 43 45 46 49 47 48 46 41 34 41 39 40 40 36 41 27 27 11 10 25 29 30 32 35 36 35 34 34 37
52 49 54 60 57 51 41 46 53 60 58 52 49 48 50 48 48 45 46 48 49 42 41 40 38 33 37 34 35 32 29 32 33 27 16 12 23 37 35 37 33 33 36 35 36
51 44 53 57 44 48 44 51 54 56 55 53 50 49 48 49 46 45 45 49 47 43 36 39 37 29 35 38 38 35 35 34 20 20 23 20 25 41 39 38 37 35 36 35 37
46 50 51 52 40 43 50 51 54 52 52 51 48 51 51 46 40 44 46 40 46 41 37 37 32 24 27 30 35 30 32 33 33 30 22 19 22 39 39 38 37 34 32 35 36
50 42 44 44 49 46 47 47 47 51 52 54 50 51 47 44 46 41 42 38 40 41 42 43 34 30 31 35 35 27 29 32 31 25 26 26 28 36 39 38 35 33 33 33 35
48 44 48 37 39 43 46 47 47 46 51 52 46 48 46 40 40 40 43 34 36 40 39 37 25 28 32 34 32 31 30 30 28 30 26 30 29 36 37 33 31 31 34 34 34
46 45 44 47 46 40 43 42 43 46 48 45 46 48 46 42 44 39 42 38 33 34 34 32 23 29 24 29 29 26 29 29 31 32 30 31 29 41 41 37 30 33 31 31 30
53 53 49 46 44 43 43 43 44 47 49 51 50 46 42 45 47 41 39 42 38 31 27 27 24 21 20 25 22 17 24 27 30 33 32 25 32 38 34 33 29 29 30 29 28
MSLP
1018.89 1018.43 1017.89 1017.47 1017.04 1016.52 1016.05 1015.53 1015.07 1014.47 1014.09 1013.77 1013.49 1013.31 1013.14 1013.00 1012.66 1012.41 1012.78 1013.46 1013.12 1012.55 1012.45 1011.55 1010.84 1010.51 1010.48 1010.40 1010.43 1010.32 1010.27 1009.35 1009.07 1009.33 1009.87 1010.14 1010.58 1010.92 1011.21 1012.38 1013.27 1014.22 1015.65 1016.60 1016.53
1019.10 1018.65 1018.04 1017.58 1017.12 1016.63 1016.11 1015.52 1015.08 1014.48 1014.01 1013.69 1013.46 1013.24 1012.97 1012.87 1012.53 1012.69 1013.34 1013.05 1012.75 1012.49 1011.84 1011.43 1010.89 1010.61 1010.28 1010.41 1010.60 1010.53 1010.29 1009.74 1009.70 1010.25 1010.65 1010.75 1011.10 1011.63 1012.17 1013.41 1014.40 1015.19 1016.26 1016.67 1016.85
1019.18 1018.76 1018.17 1017.67 1017.15 1016.71 1016.15 1015.59 1015.05 1014.44 1013.93 1013.55 1013.43 1013.23 1013.05 1012.85 1012.72 1012.99 1013.11 1012.81 1012.56 1012.34 1011.85 1011.47 1011.04 1010.65 1010.37 1010.55 1010.70 1010.70 1010.60 1010.46 1010.42 1010.98 1011.37 1011.42 1011.60 1012.06 1012.75 1014.24 1015.40 1016.32 1017.06 1017.41 1017.64
1019.22 1018.74 1018.24 1017.71 1017.20 1016.65 1016.15 1015.56 1015.02 1014.46 1013.97 1013.47 1013.27 1013.24 1013.17 1012.92 1013.32 1013.11 1012.97 1012.66 1012.43 1012.12 1011.75 1011.25 1010.84 1010.62 1010.57 1010.49 1010.96 1011.18 1010.89 1011.04 1011.12 1011.61 1012.02 1012.09 1012.29 1013.17 1013.72 1015.32 1016.23 1017.13 1017.63 1017.98 1018.31
1019.30 1018.79 1018.29 1017.77 1017.16 1016.51 1016.03 1015.47 1014.95 1014.28 1013.83 1013.43 1013.14 1013.18 1013.07 1012.92 1013.26 1012.98 1012.92 1012.56 1012.10 1011.85 1011.92 1011.82 1011.54 1011.54 1011.08 1010.98 1011.04 1011.14 1011.32 1011.61 1011.75 1012.14 1012.42 1012.54 1012.67 1013.42 1014.79 1016.00 1016.99 1017.57 1018.01 1018.40 1018.66
1019.41 1018.91 1018.41 1017.87 1017.07 1016.39 1015.79 1015.27 1014.84 1014.20 1013.68 1013.45 1013.20 1013.23 1013.05 1013.00 1013.19 1012.92 1012.87 1012.68 1012.80 1012.47 1012.45 1012.49 1012.46 1012.28 1012.05 1011.62 1011.58 1011.55 1011.64 1011.63 1011.85 1012.24 1012.60 1013.03 1013.41 1013.86 1015.43 1016.13 1017.10 1017.70 1018.20 1018.65 1019.01
1019.42 1019.00 1018.48 1017.92 1017.19 1016.43 1015.69 1014.75 1014.61 1014.01 1013.45 1013.29 1013.26 1012.98 1012.59 1013.27 1012.95 1012.94 1012.77 1013.10 1013.16 1013.14 1012.85 1013.03 1013.01 1012.73 1012.22 1011.76 1011.77 1011.85 1011.99 1011.89 1012.18 1012.45 1012.83 1013.20 1013.53 1014.17 1015.22 1016.08 1017.12 1017.91 1018.49 1018.81 1019.07
1019.47 1019.13 1018.62 1018.01 1017.30 1016.48 1015.63 1014.52 1014.13 1013.60 1013.28 1013.13 1013.13 1012.64 1012.90 1013.10 1012.95 1012.84 1012.73 1012.73 1012.85 1013.06 1013.16 1013.31 1013.24 1013.00 1012.51 1012.29 1012.22 1012.07 1011.91 1011.89 1011.81 1012.23 1012.91 1013.45 1013.75 1014.24 1014.82 1015.88 1017.35 1018.00 1018.38 1018.68 1019.00
1019.57 1019.15 1018.75 1018.19 1017.37 1016.52 1015.44 1013.92 1013.53 1013.15 1013.12 1012.99 1013.11 1012.67 1012.93 1013.19 1013.21 1013.06 1012.88 1012.93 1012.84 1012.84 1013.05 1013.22 1013.37 1013.01 1012.83 1012.60 1012.39 1012.20 1012.14 1011.95 1011.87 1011.87 1012.69 1013.53 1013.93 1014.57 1015.16 1016.03 1017.26 1018.14 1018.89 1019.18 1019.32
1019.68 1019.26 1018.73 1018.28 1017.50 1016.65 1015.30 1013.29 1012.94 1013.06 1012.84 1012.56 1012.56 1013.06 1013.23 1013.35 1013.32 1013.27 1012.85 1012.94 1012.78 1012.57 1012.64 1012.95 1012.83 1012.80 1012.63 1012.48 1012.87 1012.88 1012.89 1012.51 1012.50 1012.29 1012.64 1013.22 1013.68 1014.63 1015.44 1016.31 1017.42 1018.27 1018.89 1019.38 1019.42
1019.66 1019.31 1018.89 1018.31 1017.60 1016.87 1015.68 1013.57 1014.00 1013.97 1013.73 1013.90 1013.93 1013.76 1013.54 1013.50 1013.60 1013.12 1013.08 1012.85 1012.65 1012.75 1012.76 1012.56 1012.94 1012.95 1012.78 1013.13 1013.39 1013.50 1013.43 1013.18 1012.60 1012.44 1013.03 1013.22 1013.52 1014.09 1015.62 1016.88 1017.88 1018.51 1018.89 1019.36 1019.59
1019.67 1019.35 1019.06 1018.38 1017.72 1017.06 1016.30 1016.68 1018.32 1018.76 1016.34 1014.41 1014.35 1014.41 1014.05 1014.12 1013.67 1013.26 1013.06 1013.06 1012.93 1013.04 1012.89 1012.75 1012.75 1013.17 1013.30 1013.56 1013.85 1013.82 1013.83 1013.61 1012.94 1013.00 1013.58 1013.82 1013.71 1014.53 1015.57 1016.57 1017.57 1018.55 1019.19 1019.62 1019.84
1019.65 1019.40 1019.05 1018.37 1017.73 1017.40 1017.69 1018.84 1018.97 1018.71 1017.76 1014.69 1014.28 1014.06 1014.09 1014.25 1013.73 1013.84 1013.67 1013.48 1013.34 1013.32 1013.47 1013.64 1012.97 1013.30 1013.81 1013.98 1014.08 1014.21 1014.36 1014.20 1014.36 1014.09 1014.06 1013.81 1013.25 1014.85 1016.01 1017.01 1017.78 1018.51 1019.06 1019.45 1019.87
1019.62 1019.41 1019.06 1018.30 1018.35 1017.92 1018.50 1019.10 1018.90 1018.60 1017.48 1014.89 1014.36 1014.16 1014.16 1014.02 1014.25 1014.29 1014.23 1014.26 1013.71 1013.59 1013.88 1013.71 1013.36 1013.84 1014.16 1014.35 1014.47 1014.73 1014.96 1015.32 1015.42 1015.47 1014.66 1014.22 1013.85 1014.84 1015.98 1017.26 1018.09 1018.60 1019.08 1019.60 1020.01
1019.56 1019.43 1019.17 1019.00 1018.88 1018.43 1019.38 1019.06 1018.84 1018.52 1017.01 1014.33 1014.16 1014.25 1014.01 1014.20 1014.47 1014.47 1014.60 1014.39 1014.23 1014.10 1014.46 1013.58 1013.65 1014.16 1014.59 1014.68 1015.00 1015.36 1015.61 1015.77 1015.98 1015.65 1015.15 1015.15 1015.60 1013.66 1014.81 1016.46 1017.43 1018.26 1018.99 1019.45 1019.76
1019.49 1019.47 1019.25 1018.61 1018.79 1019.41 1019.29 1019.01 1018.75 1018.07 1015.41 1013.90 1013.74 1013.85 1013.90 1013.87 1014.02 1014.26 1014.65 1014.64 1014.67 1014.55 1014.03 1013.65 1014.26 1014.80 1014.87 1015.04 1015.50 1015.76 1015.83 1015.74 1015.43 1015.72 1015.91 1015.11 1015.48 1013.99 1014.96 1014.87 1016.82 1017.87 1018.62 1019.09 1019.39
1019.38 1019.46 1019.39 1019.22 1019.17 1019.40 1019.15 1018.86 1018.35 1016.46 1013.71 1013.57 1013.44 1013.58 1013.66 1013.66 1013.87 1014.29 1014.66 1014.92 1015.05 1014.91 1014.38 1013.88 1013.99 1014.98 1015.49 1015.62 1015.80 1016.43 1016.69 1016.83 1016.70 1016.92 1016.39 1015.83 1015.92 1014.14 1014.83 1015.29 1016.63 1017.91 1018.67 1018.97 1019.05
1019.19 1019.41 1019.20 1018.96 1019.14 1019.34 1019.09 1018.60 1017.09 1014.50 1013.31 1013.09 1013.33 1013.68 1013.63 1013.53 1013.84 1014.35 1014.83 1014.89 1014.45 1014.97 1015.30 1014.82 1014.57 1015.50 1015.90 1016.07 1016.47 1016.62 1017.28 1018.36 1018.54 1018.77 1017.59 1016.71 1015.51 1013.78 1014.00 1015.32 1016.40 1017.29 1018.27 1018.82 1018.97
1019.00 1018.90 1018.71 1018.26 1018.88 1019.23 1018.92 1017.51 1014.73 1013.36 1012.87 1012.93 1013.54 1013.55 1013.34 1013.80 1014.37 1014.62 1014.55 1014.42 1014.33 1014.69 1015.59 1015.33 1015.22 1015.92 1016.40 1016.72 1017.11 1017.39 1018.00 1018.61 1019.32 1020.08 1019.51 1016.95 1015.08 1014.94 1014.82 1015.66 1016.46 1017.19 1017.74 1018.73 1019.26
1018.59 1018.42 1017.80 1017.86 1018.68 1018.84 1018.27 1015.90 1013.83 1012.80 1012.81 1012.97 1013.12 1012.76 1012.91 1013.43 1014.33 1014.53 1013.91 1013.38 1014.36 1014.90 1015.57 1016.35 1016.58 1016.54 1017.45 1017.63 1017.81 1018.11 1018.46 1019.43 1020.28 1021.04 1019.70 1016.81 1015.42 1014.57 1015.26 1015.66 1016.37 1017.32 1017.94 1018.42 1018.51
1018.55 1018.37 1017.84 1017.84 1018.48 1018.24 1016.45 1014.73 1013.49 1012.79 1012.85 1013.18 1012.91 1012.76 1012.69 1013.14 1013.33 1013.83 1013.44 1013.68 1014.19 1016.00 1016.76 1017.37 1017.86 1017.66 1017.78 1017.79 1017.60 1018.65 1018.87 1019.35 1019.85 1020.32 1019.59 1017.99 1014.92 1013.81 1014.64 1015.32 1016.23 1016.97 1017.74 1017.76 1018.27
1018.03 1018.28 1017.51 1017.67 1018.16 1016.46 1014.93 1013.75 1013.68 1012.62 1012.53 1012.67 1012.78 1012.92 1012.86 1013.14 1013.05 1013.68 1013.54 1014.06 1014.50 1016.03 1017.39 1017.86 1018.10 1017.90 1017.44 1017.24 1017.48 1017.66 1017.83 1018.55 1019.37 1019.39 1019.01 1018.09 1013.07 1012.87 1013.61 1014.70 1015.64 1016.49 1017.31 1017.87 1018.12
1017.10 1017.17 1017.87 1017.35 1016.21 1014.91 1013.73 1012.80 1012.42 1012.33 1012.41 1012.65 1012.59 1012.32 1012.62 1013.18 1013.76 1013.43 1014.22 1015.17 1015.57 1016.37 1017.08 1018.04 1018.40 1018.61 1017.62 1018.27 1018.33 1018.19 1017.74 1017.83 1018.19 1018.58 1017.32 1017.77 1013.58 1013.13 1013.67 1014.48 1014.97 1016.03 1016.91 1017.23 1017.63
1015.80 1015.90 1016.83 1016.77 1014.84 1014.35 1013.44 1011.80 1011.82 1011.66 1011.80 1011.86 1011.75 1012.26 1012.80 1012.92 1013.40 1013.56 1014.48 1015.98 1016.55 1017.13 1017.87 1018.24 1018.32 1017.69 1016.99 1016.71 1017.63 1018.38 1017.73 1017.58 1018.08 1017.72 1015.57 1014.12 1012.41 1013.36 1013.31 1014.06 1014.95 1015.73 1016.38 1016.98 1017.57
1014.36 1012.68 1012.82 1013.92 1013.96 1013.47 1013.29 1011.28 1011.07 1011.16 1011.13 1011.21 1011.25 1011.77 1012.63 1013.00 1013.59 1013.76 1015.28 1016.77 1017.64 1018.31 1018.69 1019.06 1019.00 1018.81 1017.69 1017.50 1017.55 1017.17 1017.30 1017.12 1016.67 1015.61 1015.65 1011.01 1012.98 1012.36 1013.39 1014.35 1014.98 1015.70 1016.36 1017.00 1017.41
1011.78 1011.58 1011.52 1011.44 1011.80 1012.56 1011.50 1010.20 1010.80 1010.65 1010.57 1010.18 1010.57 1011.08 1011.97 1012.27 1013.00 1012.99 1014.59 1015.69 1016.82 1018.74 1019.23 1019.99 1019.33 1018.99 1018.12 1018.13 1017.89 1016.68 1016.24 1015.94 1014.99 1013.99 1013.54 1012.81 1011.14 1012.29 1012.92 1013.85 1014.83 1015.82 1016.58 1017.16 1017.57
1009.74 1009.67 1010.54 1008.93 1009.96 1010.08 1008.45 1008.50 1008.17 1010.22 1009.90 1009.13 1010.34 1011.22 1011.46 1011.98 1013.33 1014.08 1014.75 1015.14 1015.97 1017.29 1019.34 1020.04 1020.05 1019.75 1018.63 1018.78 1018.80 1016.49 1014.10 1013.65 1012.77 1012.56 1012.61 1012.35 1010.22 1012.43 1013.13 1014.20 1015.30 1016.13 1016.88 1017.46 1017.88
Wind_Speed
19 19 20 21 20 20 19 18 17 17 14 13 13 10 10 10 10 1 7 5 8 14 10 8 7 2 4 3 3 2 2 2 4 4 4 4 7 8 5 10 11 13 13 8 10
19 20 21 22 20 19 19 18 17 17 16 13 12 10 9 8 3 8 2 7 8 8 6 8 8 8 3 2 2 2 2 5 5 7 7 8 6 4 6 10 7 10 13 10 10
19 20 21 22 22 20 18 17 15 17 17 14 10 8 7 4 3 3 5 8 9 7 5 4 5 4 4 1 2 3 2 5 4 8 7 4 5 0 5 6 9 9 9 9 10
19 20 21 21 22 21 19 17 16 17 16 15 10 8 7 3 1 4 9 8 10 7 5 5 6 3 3 1 4 4 3 3 4 6 5 3 5 9 10 9 14 11 8 10 11
17 18 20 21 22 23 21 18 16 17 15 13 10 7 2 3 4 6 9 8 5 5 6 6 7 5 3 3 3 5 4 1 3 3 2 5 2 10 11 15 12 10 10 10 9
16 18 19 21 23 24 24 19 17 16 16 11 8 5 3 3 2 5 6 4 8 6 5 7 4 3 5 3 2 3 4 7 1 3 3 5 2 4 14 15 10 9 9 8 9
15 18 20 21 23 24 24 23 17 17 13 9 6 3 1 2 2 4 5 2 3 4 3 3 4 4 2 4 2 2 3 5 5 4 3 3 5 8 16 14 10 9 7 7 8
14 16 19 21 23 24 25 24 17 16 10 8 6 3 2 2 5 3 6 4 3 2 2 1 2 5 3 3 3 4 3 5 9 9 6 2 4 7 10 12 10 8 7 8 8
13 16 18 20 23 24 25 26 18 9 6 7 4 1 2 1 1 3 3 3 6 3 4 2 2 3 2 3 3 5 3 8 2 10 6 7 4 10 9 13 9 7 7 7 7
12 15 18 20 22 24 26 26 2 4 6 3 2 2 2 2 2 4 2 2 3 6 4 4 4 3 5 1 2 4 6 6 6 2 7 6 10 8 8 11 9 8 7 6 7
10 13 17 19 22 23 14 8 7 1 8 4 4 5 1 4 1 3 2 5 4 4 7 0 1 7 5 5 4 5 7 10 10 4 1 7 8 7 12 9 9 7 6 5 6
10 12 17 19 22 21 7 5 3 1 10 3 2 4 3 2 2 3 7 3 4 6 9 5 7 4 3 3 4 6 9 11 6 4 3 10 16 7 13 11 9 8 4 5 6
8 11 15 18 20 7 6 4 3 3 4 2 2 3 2 2 2 3 6 0 2 4 7 4 7 3 3 5 7 7 8 5 4 7 10 17 15 10 8 6 7 7 4 6 7
7 10 15 22 4 3 3 2 1 3 3 3 3 2 2 2 2 2 3 2 2 5 4 8 3 2 5 6 4 5 4 3 7 5 5 7 9 4 14 11 9 7 7 5 5
5 9 13 10 6 2 2 1 1 2 6 1 4 1 2 2 1 1 1 1 4 7 4 9 2 3 4 3 2 3 2 6 10 12 10 10 7 5 20 14 12 8 6 6 5
2 6 12 0 3 2 2 2 3 1 10 2 3 3 3 4 5 4 2 2 2 4 7 13 6 3 2 1 2 7 7 9 13 8 5 8 6 5 11 15 10 7 6 5 4
2 3 5 3 2 2 3 3 3 5 1 4 2 3 1 4 3 2 1 3 4 6 3 1 10 4 1 4 5 3 5 5 6 1 8 5 5 8 6 10 11 7 5 4 5
5 1 4 3 4 3 3 3 7 7 7 3 2 1 5 3 4 4 2 4 9 4 4 4 5 8 5 1 1 2 0 5 7 4 6 8 9 5 13 11 9 8 6 6 9
6 3 3 4 5 3 3 7 7 7 1 6 3 6 7 3 2 3 9 7 2 10 8 5 5 4 4 3 1 4 4 2 2 3 3 6 6 5 12 9 7 6 7 6 6
2 2 5 11 7 3 4 15 11 5 5 2 7 7 5 5 6 7 7 4 6 3 7 4 8 2 3 1 2 2 2 4 1 3 8 6 8 5 8 5 5 5 4 3 5
3 3 3 6 4 3 9 11 13 17 6 7 7 11 10 7 7 6 7 5 7 5 3 1 4 2 4 7 8 4 4 4 1 5 6 4 6 7 8 7 3 2 3 7 7
4 5 5 6 5 5 13 10 15 19 3 6 1 9 10 7 9 8 8 9 11 10 9 6 4 5 8 3 3 1 7 10 6 6 4 3 16 4 3 9 7 2 4 4 6
4 5 3 4 8 13 8 13 18 18 7 8 10 11 6 6 6 9 10 5 10 10 9 8 4 3 7 3 1 6 6 5 5 3 17 6 11 5 8 8 3 6 4 5 10
4 5 4 4 7 11 16 22 22 8 11 12 7 6 7 10 7 6 7 2 1 5 5 4 5 11 18 7 6 6 8 11 13 13 20 27 31 15 15 15 6 6 6 7 10
6 7 9 7 10 19 19 8 17 18 14 15 9 21 18 12 10 18 11 4 3 4 4 5 9 11 21 16 10 14 9 15 20 24 20 33 23 23 12 5 3 3 5 8 12
8 7 2 9 13 22 24 23 28 22 13 9 24 16 13 23 23 8 11 8 9 8 8 5 5 7 16 6 10 19 18 17 22 26 26 28 34 17 15 8 3 4 6 9 11
10 4 5 10 17 18 21 27 27 19 20 29 23 12 18 20 8 4 2 1 9 13 13 8 6 4 7 5 8 17 24 28 27 21 22 24 30 13 8 2 1 3 6 7 8
Wind_Direction
357 357 355 353 350 348 345 343 339 331 336 339 339 342 339 335 317 237 49 332 302 312 312 261 242 165 237 145 306 301 296 273 39 19 23 90 40 38 140 70 50 65 74 69 34
356 353 353 350 349 345 341 341 338 328 331 337 339 338 337 342 246 69 332 300 300 305 325 356 2 332 221 148 196 288 306 29 12 22 18 13 55 22 66 62 43 66 59 55 52
352 350 349 347 345 344 339 337 337 326 328 330 334 327 333 306 283 47 339 333 324 286 265 279 266 254 291 128 88 354 311 6 20 47 17 329 57 39 117 55 60 76 67 51 51
348 347 345 344 342 340 337 335 334 322 325 322 329 328 344 238 319 33 346 341 312 282 274 324 288 338 309 354 102 287 59 358 32 47 8 7 287 81 79 84 87 76 67 57 41
345 345 342 339 341 337 334 336 332 320 321 318 322 338 273 204 62 8 352 345 356 336 35 352 10 344 316 7 356 213 108 217 285 322 31 311 101 129 96 95 94 88 69 58 53
345 343 341 337 339 336 329 334 330 317 316 316 316 330 250 249 260 22 0 12 19 360 29 11 9 4 281 311 290 15 306 273 130 98 134 3 355 152 109 114 105 99 85 73 62
345 342 339 339 337 334 326 325 326 313 308 310 306 265 273 88 82 350 55 61 344 358 6 75 330 265 25 233 24 292 276 117 189 173 149 326 215 194 120 120 105 85 77 67 69
342 340 339 336 334 331 322 317 321 306 302 292 293 254 43 96 321 35 350 156 172 106 13 62 300 286 254 62 225 243 212 198 168 189 155 122 284 102 120 125 105 98 69 47 37
338 339 338 335 333 328 318 311 309 284 277 291 260 342 145 143 271 338 46 359 293 216 169 201 224 283 112 222 227 215 315 321 280 188 143 184 266 118 116 121 124 100 69 48 40
335 336 336 334 333 325 318 301 275 321 237 238 266 244 136 55 340 323 26 258 306 300 190 233 212 224 227 320 271 324 304 295 285 186 200 265 250 120 134 130 131 101 84 60 44
331 337 335 334 333 322 334 329 355 218 27 269 314 273 60 333 119 182 5 310 213 219 328 355 311 281 42 54 328 271 261 270 277 126 188 243 261 263 149 136 134 121 100 69 51
325 339 335 333 330 318 296 51 62 278 311 186 286 286 266 5 260 115 322 342 359 317 315 317 271 60 22 285 252 270 268 273 285 146 341 267 260 134 164 166 143 129 112 65 27
326 340 335 330 325 313 60 54 332 279 266 235 195 266 102 225 16 54 342 27 312 313 348 292 280 50 289 297 283 280 279 307 285 313 274 273 268 151 159 130 140 157 141 58 33
326 341 340 328 326 342 81 22 269 285 282 207 206 132 173 302 210 2 15 43 269 298 339 268 81 39 311 278 285 279 51 318 279 304 239 56 285 104 167 171 180 154 87 51 16
316 344 338 351 310 295 61 285 232 250 318 44 144 66 96 255 103 151 9 226 234 273 98 250 276 307 276 278 81 250 343 256 258 249 285 253 257 286 157 187 180 141 93 45 12
289 350 336 171 243 66 253 204 236 240 246 139 122 151 207 177 182 146 238 214 75 290 227 247 121 213 292 99 187 323 287 272 250 254 267 257 225 221 179 196 141 124 71 41 357
193 344 327 305 323 157 235 235 273 216 220 165 186 203 35 199 174 171 247 212 243 309 252 253 210 111 180 264 156 227 291 324 334 24 228 86 333 244 142 103 125 107 62 32 351
164 321 200 279 132 174 223 216 228 251 272 69 107 166 233 122 209 120 217 256 231 219 314 264 300 167 152 210 88 203 16 161 257 260 266 16 253 246 126 128 135 88 71 31 19
139 203 224 177 156 210 223 209 214 208 316 138 138 223 213 143 221 197 212 227 256 180 196 308 242 94 30 44 116 147 198 359 335 60 356 232 263 74 139 151 96 44 38 22 347
184 232 227 136 156 209 223 226 236 186 120 101 223 229 259 196 185 189 208 182 196 164 74 351 301 49 91 127 132 265 157 84 139 290 266 252 252 230 186 159 82 19 358 334 346
131 232 101 128 185 215 216 214 238 255 211 201 233 260 257 268 238 233 250 198 152 113 74 51 203 156 127 202 179 165 224 223 346 193 218 293 250 155 158 167 131 340 10 8 343
154 229 157 179 178 207 222 215 225 262 228 242 242 251 266 266 271 252 238 213 119 138 168 197 239 245 245 77 41 304 220 181 162 241 253 244 260 328 337 148 127 79 33 330 331
208 222 151 229 215 225 235 229 234 240 204 194 232 209 180 218 259 217 237 336 138 161 173 177 222 328 287 358 130 235 204 242 255 229 231 234 251 122 156 186 56 60 4 344 331
178 224 161 207 255 247 234 235 233 193 236 216 240 206 211 230 223 263 181 144 91 147 84 148 212 203 254 265 143 222 219 211 219 237 255 236 260 255 270 291 351 19 352 346 331
202 228 175 195 213 228 234 251 233 225 211 201 240 232 236 256 233 236 248 141 157 173 163 172 231 230 256 274 277 267 254 218 217 233 230 262 246 265 262 281 330 351 343 331 328
202 200 181 240 177 206 220 230 237 240 245 209 232 223 217 233 223 232 220 174 191 171 171 180 245 243 267 268 266 264 246 243 245 241 247 257 271 260 285 281 23 336 352 322 314
209 178 213 212 217 228 210 225 234 224 237 239 243 241 235 237 247 316 33 44 164 156 181 185 198 172 247 62 336 281 231 231 242 236 237 244 250 287 261 241 12 3 325 322 334